This is the latest recevied weather packets stored in our database for station/object KD4EED. If no packets are shown the sender has not sent any weather packets the latest 10 day(s).
| Time | Temp. | Humidity | Pressure | Rain* | Wind** | Luminosity | Snow |
|---|---|---|---|---|---|---|---|
| 1788449662 | 20.56° C | 79% | 1012 hPa | - | - | 49 W/m² | - |
| 1788449358 | 20.56° C | 80% | 1012.2 hPa | - | - | 55 W/m² | - |
| 1788449054 | 20.56° C | 82% | 1012.1 hPa | - | - | 63 W/m² | - |
| 1788448754 | 20° C | 83% | 1012.1 hPa | - | - | 56 W/m² | - |
| 1788448450 | 20° C | 84% | 1012 hPa | - | - | 63 W/m² | - |
| 1788448149 | 19.44° C | 85% | 1012 hPa | - | - | 61 W/m² | - |
| 1788447844 | 19.44° C | 86% | 1011.9 hPa | - | - | 54 W/m² | - |
| 1788447539 | 19.44° C | 88% | 1011.9 hPa | - | - | 48 W/m² | - |
| 1788447235 | 18.89° C | 87% | 1012 hPa | - | - | 46 W/m² | - |
| 1788446934 | 18.89° C | 87% | 1011.8 hPa | - | - | 35 W/m² | - |
| 1788446630 | 18.89° C | 87% | 1011.8 hPa | - | - | 24 W/m² | - |
| 1788446324 | 18.89° C | 87% | 1012 hPa | - | - | 23 W/m² | - |
| 1788446021 | 18.89° C | 88% | 1011.7 hPa | - | - | 24 W/m² | - |
| 1788445722 | 18.89° C | 87% | 1011.7 hPa | - | - | 21 W/m² | - |
| 1788445417 | 18.89° C | 87% | 1011.7 hPa | - | - | 20 W/m² | - |
| 1788445113 | 18.89° C | 87% | 1011.6 hPa | - | - | 17 W/m² | - |
| 1788444809 | 18.89° C | 86% | 1011.5 hPa | - | - | 15 W/m² | - |
| 1788444504 | 18.89° C | 86% | 1011.6 hPa | - | - | 13 W/m² | - |
| 1788444199 | 18.89° C | 86% | 1011.5 hPa | - | - | 12 W/m² | - |
| 1788443895 | 18.89° C | 86% | 1011.3 hPa | - | - | 11 W/m² | - |
| 1788443590 | 18.89° C | 86% | 1011.3 hPa | - | - | 9 W/m² | - |
| 1788443289 | 18.89° C | 86% | 1011.4 hPa | - | - | 8 W/m² | - |
| 1788442985 | 18.89° C | 86% | 1011.2 hPa | - | - | 6 W/m² | - |
| 1788442682 | 18.89° C | 86% | 1011.3 hPa | - | - | 4 W/m² | - |
| 1788442379 | 18.89° C | 86% | 1011.3 hPa | - | - | 3 W/m² | - |
* Rain since midnight (hover to see other rain measurements)
** Current wind speed in m/s (hover to see current wind gust speed)